Japanese version Home page |
Updated on April 23, 2023 |
Profile
|
Orbital ElementsEpoch 2023 Feb. 25.0 TT = JDT 2460000.5 T 2022 Aug. 19.14768 TT Rudenko q 3.1514833 (2000.0) P Q n 0.06075584 Peri. 262.75495 +0.65728212 -0.64267742 a 6.4083176 Node 136.09067 +0.68358203 +0.72831513 e 0.5082199 Incl. 34.58206 -0.31732606 +0.23774524 P 16.2 >From 81 observations 2022 Sept. 14-2023 Feb. 8, mean residual 0".3.
|
Magnitudes Graphm1 = 13.0 + 5 log d + 10.0 log r
|
The orbital elements are published on M.P.E.C. 2023-H131.
|